Location: LDNL
(36.4545°S, 141.6685°E)
Time: 21:35:40
(UTC+10:00)

A-11 Canister half - Pass Details

Date: 02 February 2022
Orbit: 1526 x 1682 km, 47.3° (Epoch: 01 June)

Event Time Altitude Azimuth Distance (km) Brightness Sun altitude
Rises 23:16:25 0° 290° (WNW) 4,931 11.9 -26.0°
Reaches altitude 10° 23:19:39 10° 286° (WNW) 3,950 11.4 -26.4°
Maximum altitude 23:29:45 64° 205° (SSW) 1,827 9.5 -27.7°
Drops below altitude 10° 23:39:47 10° 123° (ESE) 3,910 11.1 -28.9°
Sets 23:42:58 0° 120° (ESE) 4,879 11.6 -29.3°
